Location: Kershaw
(34.5481°N, 80.5823°W)
Time: 17:04:09
(UTC+00:00)

Transit 2A - Pass Details

Date: 05 October 2022
Orbit: 598 x 959 km, 66.7° (Epoch: 06 December)

Event Time Altitude Azimuth Distance (km) Brightness Sun altitude
Rises 11:30:07 0° 353° (N) 2,983 8.9 1.2°
Reaches altitude 10° 11:33:22 10° 18° (NNE) 2,134 8.5 1.9°
Maximum altitude 11:36:04 15° 52° (NE) 1,889 8.8 2.4°
Drops below altitude 10° 11:38:53 10° 86° (E) 2,253 10.5 3.0°
Sets 11:42:28 0° 110° (ESE) 3,262 11.5 3.7°
